Lid_Strength_Index
2 1 1 2 2 3 3 4 9 2 2 8 8 11 9 8 8 6 8 8 9 10 10 11 11 12 10 7 8 11 9 12 15 13 11 10 12 12 12 16 16 16 18 17
3 1 0 1 2 3 6 6 6 2 2 11 11 8 9 8 8 8 8 9 8 8 10 13 11 11 8 8 8 10 9 12 16 16 13 11 12 12 12 13 13 16 18 16
2 2 1 1 2 3 4 6 9 6 5 6 8 10 10 10 8 8 8 8 8 9 11 9 12 11 9 8 8 8 8 12 14 16 14 12 14 13 12 13 15 15 14 13
2 2 1 1 2 2 4 6 9 8 10 9 9 8 9 10 10 8 8 9 9 10 12 11 11 10 10 9 9 9 10 13 13 13 12 13 13 13 12 12 12 15 12 12
1 2 2 1 1 3 4 7 8 8 9 9 10 10 10 11 10 10 10 10 9 9 11 10 12 10 10 10 10 10 10 13 13 14 13 13 14 12 12 12 11 12 12 13
1 2 3 2 1 3 5 5 6 8 10 10 11 11 11 11 10 9 9 8 9 10 10 9 9 8 8 8 10 10 11 13 14 16 13 14 15 13 13 13 12 13 15 12
2 2 2 3 2 3 3 4 5 7 11 11 10 10 9 10 10 10 9 8 9 9 8 9 10 11 11 11 11 10 12 12 13 16 15 20 13 11 11 11 10 10 10 10
2 2 3 2 3 3 3 3 5 8 10 10 10 10 10 9 9 10 9 10 9 8 10 11 12 13 13 12 11 12 13 14 16 18 17 15 12 10 11 13 12 10 10 10
2 3 3 3 3 3 3 4 4 6 8 10 9 11 10 11 11 12 11 10 10 10 11 13 16 17 15 16 14 12 12 13 15 18 19 20 12 10 9 10 15 10 9 10
2 3 3 3 3 3 3 4 3 5 7 7 8 9 10 10 11 12 13 12 12 11 14 16 16 16 15 16 15 15 14 14 16 15 17 14 10 10 9 15 14 10 9 9
3 3 3 3 3 3 3 4 3 5 6 7 7 7 10 11 11 11 12 13 13 14 15 14 15 16 14 15 13 13 14 15 16 15 17 18 9 10 13 11 9 9 8 10
3 3 3 3 3 3 3 5 4 4 6 6 5 5 5 7 8 9 12 11 11 11 12 13 14 15 14 14 15 12 15 12 13 13 13 9 9 9 9 9 8 8 8 9
3 4 4 3 3 3 4 5 6 6 8 8 8 7 5 5 7 7 11 10 9 10 7 10 12 14 13 14 14 12 11 10 12 12 11 10 9 8 10 9 9 9 9 9
4 3 3 3 3 3 4 6 5 5 7 10 8 6 7 6 5 5 6 8 8 8 8 10 11 12 10 12 11 12 11 11 12 12 10 9 9 9 9 10 10 10 10 10
4 3 3 3 3 4 4 5 5 5 7 10 9 6 6 6 6 6 6 7 8 9 11 11 12 10 11 11 11 12 10 11 13 13 10 10 10 9 10 10 10 10 11 12
4 3 3 3 3 3 5 8 5 5 5 9 13 6 8 7 7 6 6 6 8 8 10 10 9 8 10 13 13 11 10 9 9 11 9 9 9 9 10 11 11 11 11 11
4 4 4 3 3 4 7 9 8 6 5 9 13 10 8 8 6 7 7 7 8 8 9 10 10 10 10 12 13 11 10 10 10 9 10 11 11 13 12 12 12 12 13 13
4 4 4 4 5 5 8 8 7 6 7 8 15 12 11 9 10 10 7 9 8 9 9 9 11 10 11 14 11 11 10 10 10 10 11 12 12 13 13 13 13 15 14 14
4 4 4 6 7 8 8 7 7 6 7 12 13 13 13 9 10 9 9 9 12 9 11 11 11 12 15 12 12 11 11 11 11 13 14 13 13 13 14 14 14 14 14 14
4 6 7 11 9 7 7 8 10 11 10 10 12 9 12 10 10 11 12 11 13 15 13 11 14 14 11 11 10 11 11 12 12 13 14 14 13 14 14 14 14 14 14 14
7 9 12 9 8 9 10 13 13 12 14 11 11 10 11 9 12 13 13 14 14 17 15 15 16 17 14 11 11 12 13 12 12 11 12 12 13 14 13 13 13 14 14 15
7 9 8 9 11 12 14 15 15 15 14 13 13 12 10 11 10 12 13 15 15 18 15 17 18 16 12 13 14 14 13 12 12 12 13 13 12 11 11 13 14 14 15 14
7 10 13 13 14 16 18 18 16 15 14 14 13 14 12 12 11 13 14 15 16 15 18 18 17 14 14 14 14 14 14 13 14 14 14 14 13 13 14 15 14 14 15 15
11 13 16 16 17 17 15 15 14 14 14 14 13 14 13 13 14 13 16 14 16 18 20 20 15 14 14 14 14 14 15 14 14 15 16 16 15 15 14 14 14 15 15 15
13 13 17 16 15 14 16 15 14 14 13 13 14 14 14 15 15 15 15 17 19 18 18 16 15 15 15 15 14 14 13 14 15 15 15 15 14 15 15 14 14 14 15 15
12 13 14 16 15 15 16 15 14 13 12 13 13 14 16 16 16 16 17 17 19 16 16 15 16 15 15 15 14 13 13 13 13 14 14 14 14 15 15 14 14 15 15 16
13 14 13 14 15 14 14 14 13 11 13 15 13 16 18 17 17 17 16 17 14 13 15 15 15 16 15 14 13 13 13 12 12 13 13 14 14 14 15 16 16 16 14 16